This is the latest recevied weather packets stored in our database for station/object KJ4EWA. If no packets are shown the sender has not sent any weather packets the latest 10 day(s).
| Time | Temp. | Humidity | Pressure | Rain* | Wind** | Luminosity | Snow |
|---|---|---|---|---|---|---|---|
| 1777779659 | 9.44° C | 98% | 1021 hPa | 0 mm | - | 0 W/m² | - |
| 1777779355 | 9.44° C | 98% | 1021 hPa | 0 mm | - | 0 W/m² | - |
| 1777779053 | 9.44° C | 98% | 1020.9 hPa | 0 mm | - | 0 W/m² | - |
| 1777778751 | 10° C | 98% | 1021 hPa | 0 mm | - | 0 W/m² | - |
| 1777778449 | 10° C | 98% | 1020.8 hPa | 0 mm | - | 0 W/m² | - |
| 1777778147 | 10° C | 97% | 1021 hPa | 0 mm | - | 0 W/m² | - |
| 1777777844 | 10° C | 97% | 1020.8 hPa | 0 mm | - | 0 W/m² | - |
| 1777777540 | 10° C | 97% | 1020.6 hPa | 0 mm | - | 0 W/m² | - |
| 1777777237 | 10.56° C | 96% | 1020.9 hPa | 0 mm | - | 0 W/m² | - |
| 1777776934 | 10° C | 96% | 1020.7 hPa | 0 mm | - | 0 W/m² | - |
| 1777776631 | 10.56° C | 96% | 1020.7 hPa | 0.51 mm | - | 0 W/m² | - |
| 1777776321 | 10.56° C | 96% | 1020.4 hPa | 0.51 mm | - | 0 W/m² | - |
| 1777776019 | 10.56° C | 96% | 1020.6 hPa | 0 mm | - | 0 W/m² | - |
| 1777775716 | 11.11° C | 96% | 1020.5 hPa | 0 mm | - | 0 W/m² | - |
| 1777775413 | 11.11° C | 95% | 1020.5 hPa | 0 mm | - | 0 W/m² | - |
| 1777775109 | 11.11° C | 95% | 1020.3 hPa | 0 mm | - | 0 W/m² | - |
| 1777774804 | 11.67° C | 94% | 1020.3 hPa | 0 mm | - | 0 W/m² | - |
| 1777774501 | 11.67° C | 94% | 1020.1 hPa | 0 mm | - | 0 W/m² | - |
| 1777774197 | 11.67° C | 92% | 1020.2 hPa | 0 mm | - | 0 W/m² | - |
| 1777773895 | 11.67° C | 92% | 1020.2 hPa | 0 mm | - | 0 W/m² | - |
| 1777773591 | 12.22° C | 92% | 1020 hPa | 0 mm | - | 0 W/m² | - |
| 1777773288 | 12.22° C | 91% | 1019.9 hPa | 0 mm | - | 0 W/m² | - |
| 1777772985 | 12.78° C | 91% | 1019.8 hPa | 0 mm | - | 0 W/m² | - |
| 1777772681 | 12.78° C | 91% | 1019.8 hPa | 0 mm | - | 0 W/m² | - |
| 1777772380 | 12.78° C | 89% | 1019.5 hPa | 0 mm | - | 0 W/m² | - |
* Rain latest hour (hover to see other rain measurements)
** Current wind speed in m/s (hover to see current wind gust speed)